Regional Weather Roundup
Issued by NWS

Home | Current Version | Previous Version | Graphics & Text | Print | Product List | Glossary On
Versions: 1 2 3 4 5 6 7 8 9 10 11 12 13 14 15 16 17 18 19 20 21 22 23 24 25 26 27 28
000
ASUS45 KBOU 241610
RWRCO

WEATHER ROUNDUP FOR COLORADO
NATIONAL WEATHER SERVICE DENVER/BOULDER CO
1000 AM MDT THU MAY 24 2018

NOTE: "FAIR" INDICATES FEW OR NO CLOUDS BELOW 12000 FEET WITH NO
SIGNIFICANT WEATHER AND/OR OBSTRUCTIONS TO VISIBILITY.

COZ001>005-013-030-031-241700-
...NORTHWEST COLORADO...

CITY           SKY/WX    TMP DP  RH WIND       PRES   REMARKS
CRAIG          FAIR      62  40  44 NE3       30.23F
HAYDEN         FAIR      61  38  42 SE3       30.26S
MEEKER         FAIR      61  36  39 CALM      30.24S
RANGELY        FAIR      62  37  40 CALM      30.20S
RABBIT EARS PA FAIR      46  30  53 W6        30.44S
STEAMBOAT SPGS FAIR      54  39  56 CALM      30.26S
WALDEN         FAIR      59  30  33 SW9G21    30.30S
$$

COZ006>008-011-241700-
...WEST CENTRAL VALLEYS...

CITY           SKY/WX    TMP DP  RH WIND       PRES   REMARKS
GRAND JUNCTION FAIR      70  34  26 S7        30.16S
MONTROSE       FAIR      66  32  28 N7        30.22S
EAGLE          FAIR      59  29  31 CALM      30.28F
RIFLE          FAIR      65  32  29 CALM      30.21F
DELTA          FAIR      69  26  19 E3        30.19F
NUCLA          FAIR      66  23  19 CALM      30.25S
$$

COZ017>023-064>068-241700-
...SOUTHWEST COLORADO...

CITY           SKY/WX    TMP DP  RH WIND       PRES   REMARKS
DURANGO        FAIR      66  24  20 E9        30.27S
CORTEZ         FAIR      70  26  19 VRB3      30.22S
PAGOSA SPRINGS FAIR      64  17  16 S6        30.33S
TELLURIDE      FAIR      62  18  18 W5        30.40S
WOLF CREEK PAS FAIR      45  18  33 SW7       30.60S
$$

COZ009-010-012-014-032>034-037-058>063-241700-
...CENTRAL COLORADO...

CITY           SKY/WX    TMP DP  RH WIND       PRES   REMARKS
ASPEN          FAIR      63  27  25 N5        30.29S
BUENA VISTA    FAIR      62  19  19 E5        30.32S
COPPER MTN     FAIR      45  19  36 W17G25    30.53R
BERTHOUD PASS  FAIR      39  30  70 W24       30.53S
COTTONWOOD PAS FAIR      63  16  16 N5G18     30.41F
GUNNISON       FAIR      56  24  29 CALM      30.34F
GRANBY         FAIR      55  34  46 CALM      30.33F
KREMMLING      FAIR      59  34  38 CALM      30.31F
LEADVILLE      FAIR      54  18  24 CALM      30.39F
MONARCH PASS   FAIR      45  16  31 MISG      30.64S
SALIDA         FAIR      63  23  21 CALM      30.36F
SUNLIGHT       FAIR      50  23  34 SW3       30.50R
WILKERSON PASS FAIR      50  16  25 SW6       30.52S
$$

COZ069>075-241700-
...SAN LUIS VALLEY/SANGRE DE CRISTO MOUNTAINS...

CITY           SKY/WX    TMP DP  RH WIND       PRES   REMARKS
ALAMOSA        FAIR      61  31  32 SE5       30.30F
DEL NORTE      FAIR      60  27  27 E6        30.33F
LA VETA PASS   FAIR      57  32  38 S9G17     30.55S
SAGUACHE       NOT AVBL
$$

COZ035-036-038>040-241700-
...NORTHERN COLORADO FRONT RANGE...

CITY           SKY/WX    TMP DP  RH WIND       PRES   REMARKS
DENVER INTL AP FAIR      72  45  37 CALM      30.13F
AURORA         MOSUNNY   71  41  33 W3        30.15F
FRONT RANGE AP MOSUNNY   73  45  35 NW5       30.15
ERIE MUNI ARPT FAIR      72  41  32 CALM      30.16F
BOULDER MUN AP FAIR      72  45  37 E5        30.12F
CENTENNIAL     FAIR      71  41  33 N5        30.16F
BROOMFIELD     MOSUNNY   72  39  30 CALM      30.15F
FORT COLLINS   FAIR      71  48  43 S7        30.12F
LONGMONT       FAIR      74  44  34 S3        30.13F
$$

COZ041-046-047-076>085-087-088-241700-
...PIKES PEAK/PALMER DIVIDE AND SOUTHERN FOOTHILLS...

CITY           SKY/WX    TMP DP  RH WIND       PRES   REMARKS
COLO. SPRINGS  FAIR      77  35  21 NW3       30.17F
A. F. ACADEMY  FAIR      72  35  26 NE3       30.18F
SCHRIEVER AFB  NOT AVBL
CHEYENNE MTN   PTSUNNY   71  35  26 NE6       30.17S
ELLICOTT       NOT AVBL
FALCON         NOT AVBL
FORT CARSON    FAIR      76  37  24 CALM      30.14F
LIMON          FAIR      72  50  45 NW14      30.13S
MONUMENT HILL  FAIR      66  37  34 NW5       30.25S
CANON CITY     FAIR      77  28  16 W8        30.12F
WALSENBURG     FAIR      77  32  19 NW6       30.17S
TRINIDAD       FAIR      73  45  36 W18       30.16S
$$

COZ042>045-048>051-090-091-241700-
...NORTHEAST COLORADO...

CITY           SKY/WX    TMP DP  RH WIND       PRES   REMARKS
GREELEY ARPT   FAIR      71  42  35 SW6       30.11F
AKRON          FAIR      70  58  65 W8G18     30.08S
BURLINGTON     FAIR      76  56  49 W10       30.05F
WRAY           FAIR      77  59  53 NW7       30.01F
YUMA           FAIR      73  43  33 NW16      30.03F
STERLING       FAIR      73  55  53 N7        30.04F
HOLYOKE        FAIR      73  64  73 N9        30.02F
FORT MORGAN    FAIR      74  52  46 W7        30.09F
$$

COZ086-089-092>099-241700-
...SOUTHEAST COLORADO...

CITY           SKY/WX    TMP DP  RH WIND       PRES   REMARKS
PUEBLO         FAIR      78  34  20 SW6       30.08F
LA JUNTA       FAIR      76  47  35 VRB5      30.06F
LAMAR          FAIR      81  47  30 W12G24    30.01F
SPRINGFIELD      N/A     73  50  44 S22G35    30.09F
$$




USA.gov is the U.S. government's official web portal to all federal, state and local government web resources and services.